sat.trackr.live / text

‹ back to catalog

STARLINK-37002

NORAD 68164 · 2026-049Y

PAYLOAD ACTIVE UNKNOWN

§ Identity

Operator
Country
US
Launch date
2026-03-13
Launch site
AFWTR
Launch vehicle
Mass (kg)
RCS (m²)

Purposes: comms

External: N2YO · Heavens-Above · Gunter

§ Orbital elements

Epoch: 2026-05-25T00:38:54.665376Z

Period
93.91 min
Inclination
97.2869°
Eccentricity
0.0000358
Mean motion
15.33447671 rev/d
Perigee alt
465.3 km
Apogee alt
465.8 km
Semi-major
6,843.7 km
B*
3.7419e-4
RAAN
166.6480°
Arg perigee
16.4343°
Mean anomaly
343.6911°
Rev number
1,134

§ Raw data

STARLINK-370021 68164U 26049Y   26145.02702159  .00012025  00000+0  37419-3 0  99962 68164  97.2869 166.6480 0000358  16.4343 343.6911 15.33447671 11343

JSON: /api/v1/satellites/68164 · /tle

For live sub-satellite position, see the globe view (requires WebGL).

§ Visibility from observer

Set your observer location to see the next 7 days of passes ≥ 10°. The values pass through the URL so the page stays shareable.

No JS? Fill the form by hand. The geolocation button needs JavaScript.